Regional Weather Roundup
Issued by NWS

Home | Current Version | Previous Version | Text Only | Print | Product List | Glossary On
Versions: 1 2 3 4 5 6 7 8 9 10 11 12 13 14 15 16 17 18 19 20 21 22 23 24 25 26 27 28 29 30 31 32 33 34 35 36 37 38 39 40 41 42 43 44 45 46 47 48 49 50
000
ASUS43 KBIS 191310
RWRND

NORTH DAKOTA REGIONAL WEATHER ROUNDUP
NATIONAL WEATHER SERVICE BISMARCK ND
800 AM CDT THU OCT 19 2017

NOTE: "FAIR" INDICATES FEW OR NO CLOUDS BELOW 12,000 FEET WITH NO
SIGNIFICANT WEATHER AND/OR OBSTRUCTIONS TO VISIBILITY.


NDZ001>003-009>011-017-191400-
NORTHWEST NORTH DAKOTA

CITY           SKY/WX    TMP DP  RH WIND       PRES   REMARKS
WILLISTON      CLOUDY    37  29  72 SW5       29.71F
MINOT          PTCLDY    47  28  47 S9        29.71F
MINOT AFB      PTCLDY    43  28  56 S7        29.69F
$$

NDZ018>021-031>035-040>046-191400-
SOUTHWEST NORTH DAKOTA

CITY           SKY/WX    TMP DP  RH WIND       PRES   REMARKS
BISMARCK       CLOUDY    38  30  73 SE6       29.80F
DICKINSON      CLOUDY    42  28  57 SW5       29.76S
GARRISON         N/A     38  31  76 S5        29.76S
HETTINGER ARPT CLOUDY    35  26  69 CALM      29.82S
$$

NDZ004>008-012>016-024-026-027-054-191400-
NORTHEAST NORTH DAKOTA

CITY           SKY/WX    TMP DP  RH WIND       PRES   REMARKS
GRAND FORKS    CLOUDY    35  27  72 SE7       29.85F
GRND FRKS AFB  CLOUDY    35  26  70 S9        29.85F
DEVILS LAKE    CLOUDY    40  32  73 SE6       29.80F
$$

NDZ022-023-025-028>030-036>039-047>053-191400-
SOUTHEAST NORTH DAKOTA

CITY           SKY/WX    TMP DP  RH WIND       PRES   REMARKS
FARGO          CLOUDY    41  30  65 SE9       29.91F
JAMESTOWN      CLOUDY    37  28  70 S7        29.83S
$$





USA.gov is the U.S. government's official web portal to all federal, state and local government web resources and services.